Date String (YYYY-MM-DD hh:mm:ss) UTC,Instrument flags,Ambient pressure (hPa),Sample flow (lpm),Bypass flow (lpm),Sample temperature (°C),Ambient temperature (°C),ASC tube jacket temperature (°C),LED temperature (°C),Box temperature (°C),Sample RH (%),Span deviation,Mass concentration (μg/m³),Mass concentration (μg/m³),Mass concentration (μg/m³)
DateTimeUTC,F1_M11,P_M11,Q1_M11,Q2_M11,T1_M11,T2_M11,T3_M11,T4_M11,T5_M11,U1_M11,ZSPAN_M11,X0_M11,X2_M11,X1_M11
2021-12-01 21:00:00,,0827.9,5.00,0.00,30.5,27.6,00.0,39.4,31.8,09.5,0000.0,0004.24,0000.82,0000.29
2021-12-01 21:01:00,,0828.0,5.00,0.00,30.3,26.2,00.0,39.4,31.4,09.8,0000.0,0004.28,0000.83,0000.29
2021-12-01 21:02:00,,0827.9,5.01,0.00,30.2,26.4,00.0,39.4,31.5,09.8,0000.0,0004.29,0000.82,0000.28
2021-12-01 21:03:00,,0827.9,5.00,0.00,30.1,26.9,00.0,39.3,31.5,10.0,0000.0,0004.03,0000.77,0000.27
2021-12-01 21:04:00,,0827.9,5.01,0.00,30.1,27.4,00.0,39.3,31.5,10.0,0000.0,0003.41,0000.73,0000.26
2021-12-01 21:05:00,,0827.9,4.99,0.00,30.1,27.8,00.0,39.2,31.6,10.0,0000.0,0003.42,0000.73,0000.26
2021-12-01 21:06:00,,0827.9,5.01,0.00,30.1,28.2,00.0,39.2,31.7,10.0,0000.0,0003.32,0000.73,0000.26
2021-12-01 21:07:00,,0827.9,5.00,0.00,30.1,28.4,00.0,39.2,31.7,09.9,0000.0,0003.19,0000.73,0000.26
2021-12-01 21:08:00,,0827.9,5.01,0.00,30.1,28.7,00.0,39.2,31.8,10.0,0000.0,0003.99,0000.68,0000.25
2021-12-01 21:09:00,,0827.9,4.99,0.00,30.2,28.9,00.0,39.2,31.9,09.7,0000.0,0003.68,0000.69,0000.25
2021-12-01 21:10:00,,0827.9,4.99,0.00,30.2,29.0,00.0,39.2,31.9,09.7,0000.0,0003.60,0000.67,0000.25
2021-12-01 21:11:00,,0827.9,5.01,0.00,30.2,29.2,00.0,39.2,32.0,09.6,0000.0,0003.60,0000.67,0000.24
2021-12-01 21:12:00,,0827.9,4.99,0.00,30.3,29.3,00.0,39.2,32.0,09.6,0000.0,0003.54,0000.65,0000.24
2021-12-01 21:13:00,,0827.9,5.00,0.00,30.3,29.4,00.0,39.2,32.1,09.6,0000.0,0003.50,0000.64,0000.24
2021-12-01 21:14:00,,0827.9,5.00,0.00,30.3,29.5,00.0,39.2,32.1,09.7,0000.0,0003.55,0000.64,0000.24
2021-12-01 21:15:00,,0827.9,4.99,0.00,30.4,29.5,00.0,39.3,32.1,09.8,0000.0,0003.64,0000.63,0000.24
2021-12-01 21:16:00,,0828.0,5.01,0.00,30.4,29.6,00.0,39.3,32.2,09.8,0000.0,0003.93,0000.64,0000.24
2021-12-01 21:17:00,,0827.9,5.00,0.00,30.5,29.5,00.0,39.3,32.2,09.6,0000.0,0004.44,0000.63,0000.24
2021-12-01 21:18:00,,0828.0,5.00,0.00,30.4,27.8,00.0,39.3,31.8,09.6,0000.0,0005.10,0000.59,0000.24
2021-12-01 21:19:00,,0828.0,5.01,0.00,30.2,26.2,00.0,39.3,31.4,09.7,0000.0,0004.30,0000.51,0000.24
2021-12-01 21:20:00,,0828.0,4.98,0.00,30.1,26.3,00.0,39.2,31.4,09.6,0000.0,0004.63,0000.47,0000.25
2021-12-01 21:21:00,,0827.9,5.00,0.00,30.0,26.7,00.0,39.2,31.5,09.7,0000.0,0005.60,0000.51,0000.25
2021-12-01 21:22:00,,0827.9,5.00,0.00,30.0,27.2,00.0,39.1,31.5,09.8,0000.0,0005.80,0000.52,0000.26
2021-12-01 21:23:00,,0827.9,5.00,0.00,30.0,27.7,00.0,39.1,31.5,09.8,0000.0,0005.81,0000.52,0000.26
2021-12-01 21:24:00,,0827.9,4.99,0.00,30.0,28.0,00.0,39.1,31.6,09.8,0000.0,0005.83,0000.52,0000.27
2021-12-01 21:25:00,,0827.9,5.00,0.00,30.0,28.3,00.0,39.1,31.7,09.8,0000.0,0005.81,0000.52,0000.26
2021-12-01 21:26:00,,0828.0,5.00,0.00,30.0,28.6,00.0,39.1,31.7,09.8,0000.0,0005.98,0000.51,0000.26
2021-12-01 21:27:00,,0828.0,5.01,0.00,30.1,28.8,00.0,39.1,31.8,09.8,0000.0,0006.81,0000.53,0000.26
2021-12-01 21:28:00,,0827.9,5.00,0.00,30.1,29.0,00.0,39.1,31.9,09.6,0000.0,0006.52,0000.53,0000.26
2021-12-01 21:29:00,,0828.0,5.01,0.00,30.1,29.1,00.0,39.1,31.9,09.5,0000.0,0005.59,0000.53,0000.26
2021-12-01 21:30:00,,0828.0,5.00,0.00,30.2,29.2,00.0,39.1,32.0,09.6,0000.0,0004.59,0000.54,0000.26
2021-12-01 21:31:00,,0828.0,5.01,0.00,30.2,29.3,00.0,39.1,32.0,09.6,0000.0,0004.08,0000.61,0000.26
2021-12-01 21:32:00,,0828.0,5.00,0.00,30.3,29.4,00.0,39.1,32.1,09.5,0000.0,0003.29,0000.62,0000.27
2021-12-01 21:33:00,,0828.0,5.00,0.00,30.3,29.5,00.0,39.1,32.1,09.4,0000.0,0003.00,0000.60,0000.27
2021-12-01 21:34:00,,0828.0,5.00,0.00,30.3,29.5,00.0,39.2,32.1,09.4,0000.0,0003.16,0000.64,0000.27
2021-12-01 21:35:00,,0828.0,5.01,0.00,30.3,27.8,00.0,39.2,31.7,09.4,0000.0,0003.86,0000.64,0000.27
2021-12-01 21:36:00,,0828.0,5.01,0.00,30.1,26.0,00.0,39.1,31.3,09.4,0000.0,0004.16,0000.65,0000.27
2021-12-01 21:37:00,,0828.0,4.99,0.00,30.0,26.1,00.0,39.1,31.2,09.5,0000.0,0004.10,0000.70,0000.27
2021-12-01 21:38:00,,0828.0,5.00,0.00,29.9,26.6,00.0,39.0,31.3,09.6,0000.0,0003.54,0000.68,0000.27
2021-12-01 21:39:00,,0828.0,5.00,0.00,29.9,27.1,00.0,39.0,31.3,09.6,0000.0,0003.75,0000.65,0000.27
2021-12-01 21:40:00,,0828.0,5.01,0.00,29.8,27.5,00.0,39.0,31.4,09.6,0000.0,0003.93,0000.68,0000.28
2021-12-01 21:41:00,,0828.0,4.99,0.00,29.9,27.9,00.0,38.9,31.5,09.6,0000.0,0004.12,0000.69,0000.28
2021-12-01 21:42:00,,0828.1,5.01,0.00,29.9,28.2,00.0,38.9,31.6,09.6,0000.0,0004.97,0000.63,0000.28
2021-12-01 21:43:00,,0828.1,4.99,0.00,29.9,28.5,00.0,38.9,31.6,09.6,0000.0,0006.99,0000.60,0000.28
2021-12-01 21:44:00,,0828.1,5.01,0.00,29.9,28.7,00.0,38.9,31.7,09.6,0000.0,0008.39,0000.62,0000.27
2021-12-01 21:45:00,,0828.1,4.99,0.00,30.0,28.9,00.0,38.9,31.8,09.5,0000.0,0008.43,0000.65,0000.27
2021-12-01 21:46:00,,0828.1,4.99,0.00,30.0,29.0,00.0,39.0,31.8,09.4,0000.0,0008.19,0000.67,0000.28
2021-12-01 21:47:00,,0828.1,5.01,0.00,30.1,29.1,00.0,39.0,31.9,09.4,0000.0,0007.92,0000.68,0000.29
2021-12-01 21:48:00,,0828.2,5.00,0.00,30.1,29.3,00.0,39.0,32.0,09.4,0000.0,0007.88,0000.70,0000.30
2021-12-01 21:49:00,,0828.2,4.99,0.00,30.2,29.4,00.0,39.0,32.0,09.4,0000.0,0007.77,0000.72,0000.31
2021-12-01 21:50:00,,0828.2,5.01,0.00,30.2,29.5,00.0,39.0,32.0,09.4,0000.0,0007.40,0000.73,0000.31
2021-12-01 21:51:00,,0828.2,5.00,0.00,30.2,29.5,00.0,39.1,32.1,09.3,0000.0,0007.37,0000.73,0000.32
2021-12-01 21:52:00,,0828.2,5.01,0.00,30.2,27.8,00.0,39.1,31.7,09.3,0000.0,0007.23,0000.71,0000.32
2021-12-01 21:53:00,,0828.2,4.99,0.00,30.0,26.0,00.0,39.0,31.1,09.5,0000.0,0006.37,0000.70,0000.32
2021-12-01 21:54:00,,0828.2,5.01,0.00,29.9,26.0,00.0,39.0,31.1,09.5,0000.0,0004.77,0000.72,0000.32
2021-12-01 21:55:00,,0828.3,5.00,0.00,29.8,26.4,00.0,38.9,31.2,09.5,0000.0,0002.36,0000.73,0000.32
2021-12-01 21:56:00,,0828.2,5.00,0.00,29.8,26.9,00.0,38.9,31.3,09.6,0000.0,0002.76,0000.72,0000.32
2021-12-01 21:57:00,,0828.2,4.99,0.00,29.8,27.4,00.0,38.9,31.3,09.6,0000.0,0002.89,0000.70,0000.31
2021-12-01 21:58:00,,0828.3,5.02,0.00,29.8,27.8,00.0,38.8,31.4,09.6,0000.0,0003.11,0000.70,0000.30
2021-12-01 21:59:00,,0828.3,4.99,0.00,29.8,28.1,00.0,38.8,31.5,09.6,0000.0,0003.16,0000.66,0000.29
